Regional Weather Roundup
Issued by NWS

Home | Current Version | Previous Version | Graphics & Text | Print | Product List | Glossary Off
Versions: 1 2 3 4 5 6 7 8 9 10 11 12 13 14 15 16 17 18 19 20 21 22 23 24 25 26 27 28 29 30 31 32 33 34 35 36 37 38 39 40 41 42 43 44 45 46 47 48 49 50

000
ASUS43 KMKX 281700
RWRWI

WISCONSIN REGIONAL WEATHER ROUNDUP
NATIONAL WEATHER SERVICE MILWAUKEE/SULLIVAN WI
1100 AM CST SUN DEC 28 2014

NOTE: "FAIR" INDICATES FEW OR NO CLOUDS BELOW 12,000 FEET WITH NO
SIGNIFICANT WEATHER AND/OR OBSTRUCTIONS TO VISIBILITY.

WIZ001-002-006>008-014>016-023>028-281800-
NORTHWEST WISCONSIN

CITY           SKY/WX    TMP DP  RH WIND       PRES   REMARKS
SUPERIOR ARPT  SUNNY     14   1  56 NW9       30.21R WCI   2
ASHLAND        SUNNY     17   5  59 W9        30.16R WCI   6
HAYWARD        CLOUDY    19  13  77 VRB5      30.12S WCI  12
SIREN          CLOUDY    19  13  79 N7        30.16R WCI   9
CUMBERLAND     LGT SNOW  18  14  86 N5        30.13R WCI  11
RICE LAKE      LGT SNOW  16  12  84 CALM      30.15R
CHETEK         LGT SNOW  16  11  82 CALM      30.15R
LADYSMITH      LGT SNOW  14  12  91 CALM      30.14R
EAU CLAIRE     NOT AVBL
MENOMONIE      CLOUDY    13  11  91 CALM      30.17R
NEW RICHMOND   CLOUDY    14  10  84 CALM      30.16R
OSCEOLA        LGT SNOW  16  12  84 CALM      30.20R
$$

WIZ003>005-009-010-017-018-281800-
NORTH CENTRAL WISCONSIN

CITY           SKY/WX    TMP DP  RH WIND       PRES   REMARKS
MANITOWISH WTR LGT SNOW  17  12  83 NW6       30.05S WCI   8
ARBOR VITAE    MOSUNNY   17  13  87 W3        30.06R
WOODRUFF       MOSUNNY   17  13  87 W3        30.06R
RHINELANDER    CLOUDY    14  11  87 W8        30.06F WCI   3
EAGLE RIVER    MOSUNNY   16  10  77 NW13      30.04S WCI   3
LAND O LAKES   LGT SNOW  18  14  82 W6        30.04S WCI  10
PHILLIPS       LGT SNOW  14  11  87 W3        30.09R
TOMAHAWK       LGT SNOW  16  13  88 CALM      30.09R
MEDFORD        LGT SNOW  12  10  89 SW3       30.10R
MERRILL        LGT SNOW  14  12  92 CALM      30.10S
$$

WIZ029-030-035-036-043>047-281800-
CENTRAL WISCONSIN

CITY           SKY/WX    TMP DP  RH WIND       PRES   REMARKS
WAUSAU         LGT SNOW  16  12  84 CALM      30.10S FOG
MOSINEE        LGT SNOW  16  16 100 W3        30.12R
MARSHFIELD     CLOUDY    14   9  80 W7        30.12R WCI   4
STEVENS POINT  PTSUNNY   16  13  89 W3        30.13S
WAUPACA        SUNNY     25  17  73 CALM      30.15R
WAUTOMA        NOT AVBL
WISC RAPIDS    SUNNY     19  13  77 SW3       30.15S
CAMP DOUGLAS   NOT AVBL
$$

WIZ011>013-019>022-031-037>040-048>050-281800-
NORTHEAST WISCONSIN

CITY           SKY/WX    TMP DP  RH WIND       PRES   REMARKS
ANTIGO         LGT SNOW  13  11  92 W5        30.08S WCI   5
SHAWANO        SUNNY     21  15  76 W6        30.14R WCI  13
OCONTO         SUNNY     21  15  76 W9        30.13R WCI  11
STURGEON BAY   SUNNY     21  14  73 W10       30.12S WCI  10
GREEN BAY      SUNNY     25  18  74 W9        30.13F WCI  15
MANITOWOC      NOT AVBL
APPLETON       MOSUNNY   21  16  79 W7        30.13S WCI  13
CLINTONVILLE   SUNNY     21  16  79 W7        30.14R WCI  13
OSHKOSH        SUNNY     23  17  78 W5        30.14F WCI  17
$$

WIZ032>034-041-042-053>061-281800-
SOUTHWEST WISCONSIN

CITY           SKY/WX    TMP DP  RH WIND       PRES   REMARKS
LA CROSSE      SUNNY     22  13  68 VRB3      30.19R
SPARTA         SUNNY     21  15  77 W3        30.18R
VIROQUA        SUNNY     21  19  89 W3        30.14R
BOSCOBEL       SUNNY     25  17  72 SW5       30.18F WCI  19
PRAIRIE DU CHI SUNNY     22  15  74 CALM      30.20S
PLATTEVILLE    SUNNY     24  20  84 CALM      30.18S
$$

WIZ056-057-062-063-064-067-068-281800-
SOUTH CENTRAL WISCONSIN

CITY           SKY/WX    TMP DP  RH WIND       PRES   REMARKS
REEDSBURG      SUNNY     23  16  75 NW5       30.16R WCI  17
BARABOO/DELLS  SUNNY     24  16  73 W3        30.16R
LONE ROCK      NOT AVBL
MINERAL POINT  SUNNY     27  19  74 SW5       30.16R WCI  21
MADISON        MOSUNNY   25  17  72 W5        30.16S WCI  19
MIDDLETON      SUNNY     28  18  67 W7        30.17S WCI  21
WATERTOWN      SUNNY     25  18  73 W3        30.15F
MONROE         SUNNY     27  19  74 SW7       30.16S WCI  19
JANESVILLE     SUNNY     28  19  69 W6        30.17S WCI  22
$$

WIZ051-052-058>065-066-070>072-281800-
SOUTHEAST WISCONSIN

CITY           SKY/WX    TMP DP  RH WIND       PRES   REMARKS
MILWAUKEE      MOSUNNY   30  16  56 W7        30.16S WCI  23
WAUKESHA       SUNNY     25  18  74 W9        30.15S WCI  15
MILWAUKEE/TIMM SUNNY     28  16  59 W9        30.16S WCI  20
RACINE         SUNNY     29  16  58 W7        30.17F WCI  22
BURLINGTON     SUNNY     27  17  66 W9        30.17R WCI  18
KENOSHA        SUNNY     29  15  56 W8        30.16F WCI  21
FOND DU LAC    SUNNY     24  15  68 SW6       30.15S WCI  17
SHEBOYGAN      SUNNY     26  18  71 W10       30.13S WCI  16
WEST BEND      SUNNY     28  18  64 NW10      30.14S WCI  19
JUNEAU         SUNNY     24  17  75 W5        30.16S WCI  18
$$

LSZ147-162-281800-
LAKE SUPERIOR

STATION/POSITION TIME  TEMP    WIND        PRES    WAVE
                       AIR SEA DIR/SP/G            HT/PER
                 (UTC) (F)     (DEG/KT/KT) (MB)    (FT/S)
DEVILS ISLAND    1600   13     320/ 12/ 16 1022.7R
PORT WING        1600   15     310/ 13/ 17 1022.0R
SAXON HARBOR     1600   21     300/ 13/ 19 1020.3R
$$

LMZ867-665-643>646-281800-
LAKE MICHIGAN

STATION/POSITION TIME  TEMP    WIND        PRES    WAVE
                       AIR SEA DIR/SP/G            HT/PER
                 (UTC) (F)     (DEG/KT/KT) (MB)    (FT/S)
CHAMBERS ISLAND  1600   22     230/  7/ 11 1019.6R
NORTHPORT PIER   1604   23     270/  7/ 16 1019.0R
SISTER BAY       1613          280/ 13/ 16   N/A
ALGOMA LAKESHORE 1545          310/ 10/ 19   N/A
KEWAUNEE LAKESHO 1600   23     290/ 12/ 19 1018.8R
SHEBOYGAN LAKESH 1600   24 36  270/ 10/ 12 1021.8R
PORT WASHINGTON  1600   27     280/  8/ 10 1021.7
MILWAUKEE LAKESH 1600   26     280/  8/ 11   N/A
KENOSHA   LAKESH 1600   26     270/  8/ 10 1021.7R
$$

TC  - TEMPERATURE IN CELSIUS
VSB - VISIBILITY IN STATUTE MILES
WCI - WIND CHILL INDEX
HX  - HEAT INDEX



USA.gov is the U.S. government's official web portal to all federal, state and local government web resources and services.